Regional Weather Roundup
Issued by NWS

Home | Current Version | Previous Version | Graphics & Text | Print | Product List | Glossary On
Versions: 1 2 3 4 5 6 7 8 9 10 11 12 13 14 15 16 17 18 19 20 21 22 23 24 25 26 27 28 29 30 31 32 33 34 35 36 37 38 39 40 41 42 43 44 45 46 47 48 49 50
000
ASUS45 KCYS 301410
RWRWY

WYOMING REGIONAL WEATHER ROUNDUP
NATIONAL WEATHER SERVICE CHEYENNE WY
700 AM MST FRI JAN 30 2015

NOTE:  "FAIR" INDICATES FEW OR NO CLOUDS BELOW 12,000 FEET
WITH NO SIGNIFICANT WEATHER AND/OR OBSTRUCTIONS TO VISIBILITY.

WYZ001-301500-
YELLOWSTONE NATIONAL PARK

CITY           SKY/WX    TMP DP  RH WIND       PRES   REMARKS
LK YELLOWSTONE   N/A     -4  -9  79 CALM      30.28S
W YELLOWSTONE  NOT AVBL

$$
WYZ002>013-054>058-071-098>099-301500-
NORTHERN WYOMING

CITY           SKY/WX    TMP DP  RH WIND       PRES   REMARKS
JACKSON        CLEAR      9   9 100 N14       30.28S WCI  -8
CODY           FAIR      25  19  80 CALM      30.20S
GREYBULL       FOG       24  22  91 CALM      30.25S VSB 1/4
WORLAND        FAIR      13  10  88 CALM      30.23S
SHERIDAN       FAIR      22  16  78 SE3       30.20R
BUFFALO        FAIR      29   8  41 W6        30.20S WCI  23
GILLETTE       FAIR      22  19  89 CALM      30.19R
HULETT           N/A    N/A N/A N/A MISG        N/A
NEWCASTLE      FAIR      27  21  80 CALM      30.21R

$$
WYZ014>020-022>026-101>103-301500-
CENTRAL WYOMING

CITY           SKY/WX    TMP DP  RH WIND       PRES   REMARKS
BIG PINEY      MOCLDY    16  13  88 NW5       30.22F WCI   9
PINEDALE       PTSUNNY   12   9  85 NW8       30.22F WCI   1
DUBOIS         FAIR      19   5  53 NW12      30.20S WCI   7
LANDER         FAIR      26  21  81 CALM      30.21R
RIVERTON       FAIR      26  22  84 W6        30.22S WCI  19
CASPER         FAIR      30  25  81 W7        30.21R WCI  23
DOUGLAS        FAIR      24  22  91 CALM      30.22S

$$
WYZ021-027>030-104>119-301500-
SOUTHERN WYOMING

CITY           SKY/WX    TMP DP  RH WIND       PRES   REMARKS
EVANSTON       CLOUDY    29  23  78 NE7       30.17F WCI  22
FORT BRIDGER   FAIR      29  28  94 SE3       30.22F
ROCK SPRINGS   FAIR      29  26  89 CALM      30.20S
DIXON          CLOUDY    33  32  95 E3        30.24F
RAWLINS        CLOUDY    33  29  85 CALM      30.22S
SARATOGA       CLOUDY    30  27  86 CALM      30.23S
LARAMIE        FAIR      26  22  84 SW3       30.20S
CHEYENNE       FAIR      30  23  75 W7        30.18F WCI  23
TORRINGTON     FAIR      26  19  74 CALM      30.21S
PINE BLUFFS    FAIR      25  23  93 CALM      30.20F

$$


USA.gov is the U.S. government's official web portal to all federal, state and local government web resources and services.